GW5113 Weather Reports


Display with metric or nautical units.
time (UTC)temp
F
wind
direction
speed
MPH
gust
MPH
rain 1hr
in
rain 24hr
in
rain mn
in
humidity
%
barometer
mb
20260502130317 42 198 0.0 1.0 0.00 0.00 0.00 96 1019.0
20260502123803 38 43 0.0 0.0 0.00 0.00 0.00 99 1019.3
20260502123300 38 56 1.0 1.0 0.00 0.00 0.00 99 1019.3
20260502122757 37 50 0.0 0.0 0.00 0.00 0.00 99 1019.2
20260502122253 37 58 0.0 0.0 0.00 0.00 0.00 99 1019.4
20260502121751 37 64 0.0 0.0 0.00 0.00 0.00 99 1019.3
20260502121249 36 64 0.0 1.0 0.00 0.00 0.00 99 1019.2
20260502120745 35 110 0.0 0.0 0.00 0.00 0.00 99 1019.4
20260502120242 35 141 0.0 0.0 0.00 0.00 0.00 99 1019.2
20260502115740 35 136 0.0 0.0 0.00 0.00 0.00 99 1019.3
20260502115236 34 153 0.0 0.0 0.00 0.00 0.00 99 1019.2
20260502114732 34 152 0.0 0.0 0.00 0.00 0.00 99 1019.3
20260502114229 34 151 0.0 0.0 0.00 0.00 0.00 99 1019.1
20260502113727 33 147 0.0 0.0 0.00 0.00 0.00 99 1019.2
20260502113224 33 148 0.0 0.0 0.00 0.00 0.00 99 1019.1
20260502112722 32 170 0.0 0.0 0.00 0.00 0.00 99 1019.0
20260502112220 32 170 0.0 0.0 0.00 0.00 0.00 99 1019.1
20260502111716 32 170 0.0 0.0 0.00 0.00 0.00 99 1019.0
20260502111214 32 170 0.0 0.0 0.00 0.00 0.00 99 1019.0
20260502110712 31 170 0.0 0.0 0.00 0.00 0.00 99 1019.0
20260502110209 31 170 0.0 0.0 0.00 0.00 0.00 99 1018.9
20260502105707 31 170 0.0 0.0 0.00 0.00 0.00 99 1019.0
20260502105203 31 170 0.0 0.0 0.00 0.00 0.00 99 1018.9
20260502104700 31 170 0.0 0.0 0.00 0.00 0.00 99 1019.0
20260502104158 31 170 0.0 0.0 0.00 0.00 0.00 99 1019.3
20260502103655 31 170 0.0 0.0 0.00 0.00 0.00 99 1019.0
20260502103153 31 170 0.0 0.0 0.00 0.00 0.00 99 1019.1
20260502102650 31 170 0.0 0.0 0.00 0.00 0.00 99 1019.1
20260502102146 31 170 0.0 0.0 0.00 0.00 0.00 99 1019.2
20260502101644 32 170 0.0 0.0 0.00 0.00 0.00 99 1019.4
20260502101142 32 170 0.0 0.0 0.00 0.00 0.00 99 1019.1
20260502100641 32 170 0.0 0.0 0.00 0.00 0.00 99 1019.3
20260502100138 32 170 0.0 0.0 0.00 0.00 0.00 99 1019.1
20260502091113 32 170 0.0 0.0 0.00 0.00 0.00 99 1019.2
20260502090609 32 170 0.0 0.0 0.00 0.00 0.00 99 1019.3
20260502090107 32 170 0.0 0.0 0.00 0.00 0.00 99 1019.2
20260502071504 33 170 0.0 0.0 0.00 0.00 0.00 99 1018.7
20260502071002 33 171 0.0 0.0 0.00 0.00 0.00 99 1018.9
20260502070500 33 171 0.0 0.0 0.00 0.00 0.00 99 1018.6
20260502065958 33 170 0.0 0.0 0.00 0.00 0.00 99 1018.6
20260502065456 33 169 0.0 0.0 0.00 0.00 0.00 99 1018.9
20260502064954 33 172 0.0 0.0 0.00 0.00 0.00 99 1019.1
20260502064452 33 170 0.0 0.0 0.00 0.00 0.00 99 1019.1
20260502063948 33 169 0.0 0.0 0.00 0.00 0.00 99 1019.3
20260502063447 34 169 0.0 0.0 0.00 0.00 0.00 99 1019.3
20260502062944 34 168 0.0 0.0 0.00 0.00 0.00 99 1019.2
20260502062441 34 168 0.0 0.0 0.00 0.00 0.00 99 1019.3
20260502061939 34 169 0.0 0.0 0.00 0.00 0.00 99 1019.6
20260502061437 34 168 0.0 0.0 0.00 0.00 0.00 99 1019.4
20260502060933 34 171 0.0 0.0 0.00 0.00 0.00 99 1019.6
20260502060428 34 170 0.0 0.0 0.00 0.00 0.00 99 1019.5
20260502055925 34 170 0.0 0.0 0.00 0.00 0.00 99 1019.5
20260502055423 34 170 0.0 0.0 0.00 0.00 0.00 99 1019.5
20260502054923 34 170 0.0 0.0 0.00 0.00 0.00 99 1019.5
20260502054420 35 170 0.0 0.0 0.00 0.00 0.00 99 1019.6
20260502053917 35 172 0.0 0.0 0.00 0.00 0.00 99 1019.5
20260502053414 35 172 0.0 0.0 0.00 0.00 0.00 99 1019.5
20260502052912 35 172 0.0 0.0 0.00 0.00 0.00 99 1019.5
20260502052410 35 172 0.0 0.0 0.00 0.00 0.00 99 1019.6
20260502051908 35 172 0.0 0.0 0.00 0.00 0.00 99 1019.5
20260502051406 35 172 0.0 0.0 0.00 0.00 0.00 99 1019.5
20260502050902 35 172 0.0 0.0 0.00 0.00 0.00 99 1019.8
20260502050359 35 172 0.0 0.0 0.00 0.00 0.00 99 1019.6
20260502045856 35 172 0.0 0.0 0.00 0.00 0.00 99 1019.8
20260502045353 35 172 0.0 0.0 0.00 0.00 0.00 99 1019.9
20260502044850 36 172 0.0 0.0 0.00 0.00 0.00 99 1019.8
20260502044345 36 172 0.0 0.0 0.00 0.00 0.00 99 1019.9
20260502043843 36 172 0.0 0.0 0.00 0.00 0.00 99 1019.9
20260502043341 36 172 0.0 0.0 0.00 0.00 0.00 99 1019.8
20260502042840 36 172 0.0 0.0 0.00 0.00 0.00 99 1019.9
20260502042337 37 172 0.0 0.0 0.00 0.00 0.00 99 1019.8
20260502041835 37 172 0.0 0.0 0.00 0.00 0.00 99 1019.6
20260502041332 37 170 0.0 0.0 0.00 0.00 0.00 99 1019.6
20260502040829 37 170 0.0 0.0 0.00 0.00 0.00 99 1019.6
20260502040326 37 170 0.0 0.0 0.00 0.00 0.00 99 1019.6
20260502035822 37 170 0.0 0.0 0.00 0.00 0.00 99 1019.5
20260502035319 37 170 0.0 0.0 0.00 0.00 0.00 99 1019.6
20260502034816 37 170 0.0 0.0 0.00 0.00 0.00 98 1019.7
20260502034315 38 171 0.0 0.0 0.00 0.00 0.00 98 1019.6
20260502033813 38 171 0.0 0.0 0.00 0.00 0.00 98 1019.5
20260502033310 38 170 0.0 0.0 0.00 0.00 0.00 98 1019.5
20260502032806 38 170 0.0 0.0 0.00 0.00 0.00 98 1019.6
20260502032305 38 170 0.0 0.0 0.00 0.00 0.00 98 1019.6
20260502031800 38 170 0.0 0.0 0.00 0.00 0.00 97 1019.5
20260502031258 39 170 0.0 0.0 0.00 0.00 0.00 97 1019.7
20260502030757 39 170 0.0 0.0 0.00 0.00 0.00 97 1019.4
20260502030254 39 170 0.0 0.0 0.00 0.00 0.00 97 1019.6
20260502025751 40 170 0.0 0.0 0.00 0.00 0.00 96 1019.7
20260502025249 40 170 0.0 0.0 0.00 0.00 0.00 96 1019.5
20260502024746 40 170 0.0 0.0 0.00 0.00 0.00 95 1019.4
20260502024244 40 170 0.0 0.0 0.00 0.00 0.00 95 1019.5
20260502023742 41 170 0.0 0.0 0.00 0.00 0.00 94 1019.3
20260502023239 41 170 0.0 0.0 0.00 0.00 0.00 93 1019.3
20260502022737 42 170 0.0 0.0 0.00 0.00 0.00 92 1019.2
20260502022233 42 170 0.0 0.0 0.00 0.00 0.00 92 1019.1
20260502021730 42 170 0.0 0.0 0.00 0.00 0.00 91 1019.2
20260502021228 43 170 0.0 0.0 0.00 0.00 0.00 90 1018.9
20260502020725 43 171 0.0 0.0 0.00 0.00 0.00 89 1018.9
20260502020222 44 171 0.0 0.0 0.00 0.00 0.00 88 1018.9
20260502015720 44 171 0.0 0.0 0.00 0.00 0.00 86 1018.9
20260502015216 45 163 0.0 0.0 0.00 0.00 0.00 86 1018.6
20260502014714 46 163 0.0 0.0 0.00 0.00 0.00 83 1018.6
20260502014210 45 152 0.0 0.0 0.00 0.00 0.00 85 1018.5
20260502013706 46 163 0.0 1.0 0.00 0.00 0.00 84 1018.5
20260502013202 46 180 0.0 0.0 0.00 0.00 0.00 80 1018.5
20260502012659 47 197 0.0 0.0 0.00 0.00 0.00 78 1018.2
20260502012157 47 199 0.0 0.0 0.00 0.00 0.00 78 1018.0
20260502011653 48 192 0.0 0.0 0.00 0.00 0.00 74 1018.0
20260502011149 49 342 0.0 0.0 0.00 0.00 0.00 75 1017.9
20260502010647 49 125 2.0 2.0 0.00 0.00 0.00 73 1017.7
20260502010143 49 41 2.0 3.0 0.00 0.00 0.00 71 1017.7
20260502005641 50 103 3.0 4.0 0.00 0.00 0.00 72 1017.7
20260502005138 50 18 1.0 3.0 0.00 0.00 0.00 74 1017.3
20260502004634 50 27 0.0 3.0 0.00 0.00 0.00 73 1017.2
20260502004131 50 243 1.0 1.0 0.00 0.00 0.00 78 1017.3
20260502003629 50 324 0.0 1.0 0.00 0.00 0.00 81 1017.0
20260502003126 50 324 1.0 1.0 0.00 0.00 0.00 81 1017.1
20260502002622 49 170 0.0 2.0 0.00 0.00 0.00 83 1016.8
20260502002120 49 221 0.0 0.0 0.00 0.00 0.00 94 1016.7
20260502001617 49 192 0.0 0.0 0.00 0.00 0.00 94 1016.7
20260502001114 49 192 0.0 0.0 0.00 0.00 0.00 94 1016.5
20260502000612 49 192 0.0 0.0 0.00 0.00 0.00 93 1016.4
20260502000109 49 192 0.0 0.0 0.00 0.00 0.00 93 1016.1
20260501235605 50 192 0.0 0.0 0.00 0.00 0.00 93 1016.0
20260501235101 50 192 0.0 0.0 0.00 0.00 0.00 92 1016.0
20260501234557 50 192 0.0 0.0 0.00 0.00 0.00 92 1015.8
20260501234055 50 192 0.0 0.0 0.00 0.00 0.00 92 1015.8
20260501233553 51 192 0.0 0.0 0.00 0.00 0.00 91 1015.8
20260501233049 51 183 0.0 0.0 0.00 0.00 0.00 91 1015.8
20260501232545 51 183 0.0 0.0 0.00 0.00 0.00 90 1015.7
20260501232043 51 202 0.0 0.0 0.00 0.00 0.00 89 1015.9
20260501231541 51 202 0.0 0.0 0.00 0.00 0.00 87 1015.5
20260501231039 51 202 0.0 0.0 0.00 0.00 0.00 87 1015.7
20260501230537 51 202 0.0 0.0 0.00 0.00 0.00 90 1015.8
20260501230035 51 202 0.0 0.0 0.00 0.00 0.00 90 1015.7
20260501225532 51 202 0.0 0.0 0.00 0.00 0.00 90 1015.5
20260501225028 51 202 0.0 0.0 0.00 0.00 0.00 90 1015.6
20260501224526 51 162 0.0 0.0 0.00 0.00 0.00 91 1015.8
20260501224023 51 162 0.0 0.0 0.00 0.00 0.00 91 1015.8
20260501223519 51 192 0.0 0.0 0.00 0.00 0.00 90 1015.6
20260501223015 51 193 0.0 0.0 0.00 0.00 0.00 89 1015.6
20260501222512 51 174 0.0 0.0 0.00 0.00 0.00 87 1015.5
20260501222009 51 174 0.0 0.0 0.00 0.00 0.00 87 1015.8
20260501221505 51 146 0.0 0.0 0.00 0.00 0.00 83 1015.8
20260501221003 51 317 0.0 0.0 0.00 0.00 0.00 83 1015.8
20260501220500 51 317 0.0 0.0 0.00 0.00 0.00 81 1015.8
20260501215956 51 317 0.0 1.0 0.00 0.00 0.00 81 1015.7
20260501215453 51 317 0.0 0.0 0.00 0.00 0.00 80 1015.9
20260501214948 52 317 1.0 2.0 0.00 0.00 0.00 79 1015.7
20260501214444 53 346 0.0 2.0 0.00 0.00 0.00 74 1015.6
20260501213940 53 28 0.0 2.0 0.00 0.00 0.00 71 1015.6
20260501213437 53 128 1.0 1.0 0.00 0.00 0.00 73 1015.3
20260501212932 54 230 0.0 6.0 0.00 0.00 0.00 73 1015.4
20260501212430 54 223 0.0 1.0 0.00 0.00 0.00 72 1015.5
20260501211926 55 92 1.0 1.0 0.00 0.00 0.00 74 1015.3
20260501211424 55 311 1.0 1.0 0.00 0.00 0.00 71 1015.3
20260501210921 55 64 1.0 2.0 0.00 0.00 0.00 74 1015.0
20260501210418 55 54 3.0 6.0 0.00 0.00 0.00 72 1015.3
20260501205914 56 37 3.0 4.0 0.00 0.00 0.00 73 1015.1
20260501205411 56 47 2.0 2.0 0.00 0.00 0.00 73 1015.1
20260501204908 56 39 4.0 7.0 0.00 0.00 0.00 71 1015.0
20260501204404 56 116 2.0 3.0 0.00 0.00 0.00 70 1015.0
20260501203900 56 193 0.0 6.0 0.00 0.00 0.00 72 1014.9
20260501203358 56 121 3.0 6.0 0.00 0.00 0.00 71 1014.7
20260501202855 55 71 1.0 3.0 0.00 0.00 0.00 73 1014.9
20260501202352 55 114 0.0 2.0 0.00 0.00 0.00 72 1014.4
20260501201848 55 171 0.0 3.0 0.00 0.00 0.00 74 1014.9
20260501201345 55 64 2.0 3.0 0.00 0.00 0.00 71 1014.6
20260501200842 56 157 2.0 4.0 0.00 0.00 0.00 71 1014.4
20260501200339 56 52 5.0 7.0 0.00 0.00 0.00 70 1014.6
20260501195837 55 98 0.0 3.0 0.00 0.00 0.00 71 1014.4
20260501195332 55 55 1.0 3.0 0.00 0.00 0.00 70 1014.9
20260501194829 56 106 1.0 11.0 0.00 0.00 0.00 68 1014.8
20260501194325 58 200 2.0 4.0 0.00 0.00 0.00 69 1014.7
20260501193821 58 200 1.0 1.0 0.00 0.00 0.00 66 1014.4
20260501193320 59 263 0.0 1.0 0.00 0.00 0.00 69 1014.1
20260501192817 60 182 0.0 3.0 0.00 0.00 0.00 59 1014.1
20260501192314 60 257 0.0 1.0 0.00 0.00 0.00 52 1013.8
20260501191811 61 149 1.0 2.0 0.00 0.00 0.00 50 1013.9
20260501191308 61 55 2.0 3.0 0.00 0.00 0.00 45 1013.7
20260501190805 62 49 1.0 2.0 0.00 0.00 0.00 46 1013.6
20260501190301 63 221 0.0 2.0 0.00 0.00 0.00 43 1013.5
20260501185756 64 288 0.0 1.0 0.00 0.00 0.00 44 1013.8
20260501185252 63 206 0.0 0.0 0.00 0.00 0.00 46 1013.6
20260501184748 64 175 2.0 3.0 0.00 0.00 0.00 47 1013.6
20260501184244 65 269 1.0 4.0 0.00 0.00 0.00 43 1013.6
20260501183740 64 52 1.0 2.0 0.00 0.00 0.00 47 1013.8
20260501183237 62 265 1.0 3.0 0.00 0.00 0.00 45 1014.0
20260501182733 62 307 1.0 4.0 0.00 0.00 0.00 41 1014.0
20260501182231 62 89 2.0 3.0 0.00 0.00 0.00 41 1013.9
20260501181727 63 266 1.0 2.0 0.00 0.00 0.00 42 1014.0
20260501181225 62 126 2.0 3.0 0.00 0.00 0.00 49 1014.0
20260501180723 62 140 0.0 2.0 0.00 0.00 0.00 40 1014.1
20260501180218 62 108 0.0 3.0 0.00 0.00 0.00 41 1014.2
20260501175715 62 38 2.0 3.0 0.00 0.00 0.00 40 1014.2
20260501175212 64 42 3.0 4.0 0.00 0.00 0.00 42 1014.2
20260501174708 63 270 1.0 2.0 0.00 0.00 0.00 41 1014.2
20260501174206 63 97 0.0 4.0 0.00 0.00 0.00 41 1013.9
20260501173704 63 87 2.0 3.0 0.00 0.00 0.00 40 1014.0
20260501173201 62 289 2.0 3.0 0.00 0.00 0.00 40 1014.2
20260501172657 62 254 2.0 2.0 0.00 0.00 0.00 43 1014.2
20260501172152 63 36 4.0 6.0 0.00 0.00 0.00 41 1014.3
20260501171648 62 232 1.0 3.0 0.00 0.00 0.00 43 1014.1
20260501171145 62 221 0.0 2.0 0.00 0.00 0.00 44 1014.1
20260501170642 61 52 2.0 7.0 0.00 0.00 0.00 41 1014.8
20260501170139 61 54 2.0 3.0 0.00 0.00 0.00 39 1014.6
20260501165636 61 214 2.0 7.0 0.00 0.00 0.00 41 1014.7
20260501165133 60 228 2.0 4.0 0.00 0.00 0.00 44 1014.6
20260501164632 60 97 1.0 4.0 0.00 0.00 0.00 44 1014.4
20260501164128 60 81 2.0 3.0 0.00 0.00 0.00 44 1014.6
20260501163624 60 59 1.0 2.0 0.00 0.00 0.00 51 1014.4
20260501163122 60 87 0.0 2.0 0.00 0.00 0.00 48 1015.0
20260501162617 60 278 0.0 4.0 0.00 0.00 0.00 49 1014.9
20260501162114 59 303 1.0 3.0 0.00 0.00 0.00 47 1014.9
20260501161612 59 324 0.0 2.0 0.00 0.00 0.00 52 1014.8
20260501161109 59 57 0.0 4.0 0.00 0.00 0.00 52 1014.9
20260501160606 59 220 0.0 1.0 0.00 0.00 0.00 46 1015.0
20260501155559 58 100 1.0 1.0 0.00 0.00 0.00 49 1015.1
20260501155056 59 26 1.0 1.0 0.00 0.00 0.00 51 1015.1
20260501154553 59 56 2.0 2.0 0.00 0.00 0.00 51 1015.2
20260501154050 59 89 1.0 6.0 0.00 0.00 0.00 54 1015.3
20260501153548 59 255 1.0 2.0 0.00 0.00 0.00 51 1015.2
20260501153044 58 298 4.0 6.0 0.00 0.00 0.00 53 1015.4
20260501152541 58 111 0.0 3.0 0.00 0.00 0.00 57 1015.6
20260501152038 57 164 0.0 2.0 0.00 0.00 0.00 58 1015.5
20260501151535 56 80 1.0 2.0 0.00 0.00 0.00 57 1015.7
20260501151032 57 267 3.0 3.0 0.00 0.00 0.00 57 1015.5
20260501150527 57 58 3.0 4.0 0.00 0.00 0.00 59 1015.6
20260501150024 56 259 1.0 2.0 0.00 0.00 0.00 60 1015.8
20260501145520 56 63 1.0 2.0 0.00 0.00 0.00 63 1015.6
20260501145019 56 204 0.0 2.0 0.00 0.00 0.00 71 1015.8
20260501144514 56 324 0.0 2.0 0.00 0.00 0.00 63 1015.7
20260501144009 55 324 0.0 2.0 0.00 0.00 0.00 68 1015.8
20260501143506 55 33 3.0 6.0 0.00 0.00 0.00 68 1016.1
20260501143003 54 127 1.0 4.0 0.00 0.00 0.00 73 1016.2